Creek Data

    Home     View Charts     View Raw Data     Messages

ID Distance Battery Voltage Battery Current Internal Temp Internal Humidity External Temp Solar Input rssi snr Time Stamp Record
32920 14.0 3.78 0 61 36 57 5.1 -74 8 02/20/2025 11:15 AM 14598
32919 14.0 4.05 0 60 36 57 5.1 -74 8 02/20/2025 11:00 AM 14597
32918 14.0 4.07 0 59 36 57 5.1 -75 8 02/20/2025 10:45 AM 14596
32917 13.9 3.78 0 57 36 56 5.1 -76 8 02/20/2025 10:30 AM 14595
32916 14.0 3.78 0 56 36 55 5.1 -75 8 02/20/2025 10:15 AM 14594
32915 14.0 3.79 0 55 36 54 5.1 -75 8 02/20/2025 10:00 AM 14593
32914 14.0 3.99 0 54 36 53 5.1 -74 8 02/20/2025 09:45 AM 14592
32913 14.0 3.79 0 53 36 53 5.1 -79 8 02/20/2025 09:30 AM 14591
32912 14.1 3.86 0 53 36 53 5.1 -75 8 02/20/2025 09:15 AM 14590
32911 13.9 3.79 0 52 36 53 5.1 -77 8 02/20/2025 09:00 AM 14589
32910 13.9 3.79 -5 51 37 52 5 -73 8 02/20/2025 08:45 AM 14588
32909 13.9 3.79 0 50 37 51 5.1 -75 8 02/20/2025 08:30 AM 14587
32908 13.9 3.90 5 49 36 51 5.1 -75 9 02/20/2025 08:15 AM 14586
32907 13.8 3.98 69 48 37 50 4.5 -75 8 02/20/2025 08:00 AM 14585
32906 13.9 3.89 22 47 37 49 4.5 -76 8 02/20/2025 07:45 AM 14584
32905 13.8 3.89 27 47 37 48 4.5 -74 8 02/20/2025 07:30 AM 14583
32904 13.8 3.85 14 46 38 48 4.5 -75 8 02/20/2025 07:15 AM 14582
32903 13.8 3.84 0 46 38 48 4.5 -75 8 02/20/2025 07:00 AM 14581
32902 13.8 3.79 -10 46 38 48 1.8 -77 8 02/20/2025 06:45 AM 14580
32901 13.8 3.79 -5 46 38 48 0.5 -77 8 02/20/2025 06:30 AM 14579
32900 13.8 3.79 -5 47 38 48 0 -86 7 02/20/2025 06:15 AM 14578
32899 13.8 3.79 -5 47 38 48 0.1 -90 7 02/20/2025 06:00 AM 14577
32898 13.8 3.79 -5 47 38 48 0 -82 7 02/20/2025 05:45 AM 14576
32897 13.7 3.84 -5 48 38 49 0 -80 7 02/20/2025 05:30 AM 14575
32896 13.7 3.79 -5 48 38 49 0.1 -82 8 02/20/2025 05:15 AM 14574